Regional Weather Roundup
Issued by NWS

Home | Current Version | Previous Version | Text Only | Print | Product List | Glossary On
Versions: 1 2 3 4 5 6 7 8 9 10 11 12 13 14 15 16 17 18 19 20 21 22 23 24 25 26 27 28 29 30 31 32 33 34 35 36 37 38 39 40 41 42 43 44 45 46 47 48 49 50
000
ASUS44 KOUN 291010
RWROK

WEATHER ROUNDUP FOR OKLAHOMA
NATIONAL WEATHER SERVICE NORMAN OK
500 AM CDT FRI JUL 29 2016

NOTE: "FAIR" INDICATES FEW OR NO CLOUDS BELOW 12,000 FEET WITH NO
      SIGNIFICANT WEATHER AND/OR OBSTRUCTIONS TO VISIBILITY.

OKZ001>007-009>012-014-015-017-291100-
NORTHWEST OKLAHOMA AND THE PANHANDLE

CITY           SKY/WX    TMP DP  RH WIND       PRES   REMARKS
GAGE           CLOUDY    73  65  75 N16       30.07R
GUYMON         TSTM      68  62  81 S3        30.09F
ENID/WOODRING  TSTM      70  68  94 N33G40    30.01R
$$

OKZ016-021>023-033>039-044-045-291100-
SOUTHWEST OKLAHOMA

CITY           SKY/WX    TMP DP  RH WIND       PRES   REMARKS
LAWTON/REGL    CLEAR     74  69  85 NE5       29.95R
LAWTON/FT SILL CLEAR     74  70  89 SE3       29.94R
FREDERICK      CLEAR     75  69  81 S5        29.91S
CLINTON        PTCLDY    77  67  71 CALM      30.00R
HOBART         CLEAR     75  68  78 CALM      29.97R
ALTUS AFB      CLEAR     73  67  82 E5        29.95R
$$

OKZ018>020-024>031-291100-
CENTRAL OKLAHOMA

CITY           SKY/WX    TMP DP  RH WIND       PRES   REMARKS
OKLAHOMA CITY  PTCLDY    73  70  90 S5        29.95S
OKC/WILEY POST CLEAR     76  69  79 S7        29.94F
OKC/TINKER AFB CLEAR     73  69  85 SE9       29.94S
STILLWATER     CLEAR     72  69  90 CALM      29.94S
GUTHRIE        CLEAR     74  69  85 S8        29.92F
$$

OKZ008-013-054>072-291100-
NORTHEAST OKLAHOMA

CITY           SKY/WX    TMP DP  RH WIND       PRES   REMARKS
TULSA          PTCLDY    75  69  81 VRB3      29.91R
TULSA/JONES    CLEAR     73  72  96 CALM      29.91S
PONCA CITY     LGT RAIN  72  64  76 N16G24    30.01R
BARTLESVILLE   CLOUDY    66  65  96 CALM      29.94R
MUSKOGEE       CLEAR     73  72  96 S7        29.92F
$$

OKZ032-040>043-046>053-073>077-291100-
SOUTH CENTRAL/SOUTHEAST OKLAHOMA

CITY           SKY/WX    TMP DP  RH WIND       PRES   REMARKS
ARDMORE/DWNTWN PTCLDY    73  70  88 CALM      29.93F
MCALESTER      PTCLDY    76  72  87 CALM      29.96S
$$




USA.gov is the U.S. government's official web portal to all federal, state and local government web resources and services.